Location: Tyumen
(57.1527°N, 65.5323°E)
Time: 21:43:45
(UTC+05:00)

ISS - Visible Passes

Search period start: 27 January 2021 00:00
Search period end: 06 February 2021 00:00
Orbit: 418 x 421 km, 51.6° (Epoch: 28 January)

Date Brightness Start Highest point End Pass type
(mag) Time Alt. Az. Time Alt. Az. Time Alt. Az.
27 Jan -2.5 18:56:09 10° WSW 18:59:13 31° S 19:00:17 25° SE visible
27 Jan -0.7 20:32:39 10° WSW 20:33:16 14° WSW 20:33:16 14° WSW visible
28 Jan -2.3 18:09:01 10° SW 18:12:00 29° S 18:14:54 11° ESE visible
28 Jan -2.1 19:45:21 10° WSW 19:47:53 28° SSW 19:47:53 28° SSW visible
29 Jan -2.4 18:58:04 10° WSW 19:01:07 31° S 19:02:31 22° SE visible
29 Jan -0.6 20:34:55 10° WSW 20:35:30 13° WSW 20:35:30 13° WSW visible
30 Jan -2.3 18:10:48 10° WSW 18:13:53 32° S 18:16:57 10° ESE visible
30 Jan -1.8 19:47:27 10° WSW 19:50:09 22° SSW 19:50:10 22° SSW visible
31 Jan -1.9 19:00:04 10° WSW 19:02:56 26° SSW 19:04:52 16° SSE visible
01 Feb -2.0 18:12:43 10° WSW 18:15:42 29° S 18:18:41 10° SE visible
01 Feb -1.2 19:49:53 10° WSW 19:51:49 14° SSW 19:52:38 13° SSW visible
02 Feb -1.2 19:02:15 10° WSW 19:04:38 18° SSW 19:07:02 10° SSE visible
03 Feb -1.4 18:14:44 10° WSW 18:17:25 22° SSW 18:20:06 10° SSE visible
04 Feb -0.6 19:05:16 10° SW 19:06:10 11° SW 19:07:04 10° SSW visible
05 Feb -0.8 18:17:06 10° WSW 18:19:00 14° SSW 18:20:54 10° S visible
